| time (UTC) | temp C | wind direction | speed KPH | gust KPH | rain 1hr cm | rain 24hr cm | rain mn cm | humidity % | barometer mb |
| 20260905055614 | 18 | 285 | 4.8 | 4.8 | 0.00 | 0.00 | 0.00 | 95 | 1012.8 |
| 20260905054615 | 18 | 249 | 0.0 | 4.8 | 0.00 | 0.00 | 0.00 | 95 | 1013.2 |
| 20260905054113 | 18 | 295 | 0.0 | 4.8 | 0.00 | 0.00 | 0.00 | 95 | 1012.8 |
| 20260905053115 | 18 | 263 | 0.0 | 3.2 | 0.00 | 0.00 | 0.00 | 95 | 1012.8 |
| 20260905052613 | 18 | 270 | 0.0 | 3.2 | 0.00 | 0.00 | 0.00 | 95 | 1013.2 |
| 20260905052112 | 18 | 270 | 0.0 | 3.2 | 0.00 | 0.00 | 0.00 | 95 | 1012.8 |
| 20260905051112 | 18 | 257 | 0.0 | 3.2 | 0.00 | 0.00 | 0.00 | 94 | 1013.2 |
| 20260905050611 | 18 | 350 | 0.0 | 4.8 | 0.00 | 0.00 | 0.00 | 94 | 1012.8 |
| 20260905050112 | 18 | 0 | 0.0 | 4.8 | 0.00 | 0.00 | 0.00 | 94 | 1013.2 |
| 20260905045611 | 18 | 254 | 0.0 | 4.8 | 0.00 | 0.00 | 0.00 | 95 | 1013.2 |
| 20260905045111 | 18 | 246 | 0.0 | 3.2 | 0.00 | 0.00 | 0.00 | 94 | 1013.2 |
| 20260905044110 | 18 | 245 | 0.0 | 6.4 | 0.00 | 0.00 | 0.00 | 94 | 1013.2 |
| 20260905043609 | 18 | 334 | 3.2 | 8.0 | 0.00 | 0.00 | 0.00 | 95 | 1012.8 |
| 20260905043111 | 18 | 236 | 3.2 | 8.0 | 0.00 | 0.00 | 0.00 | 95 | 1013.2 |
| 20260905042609 | 18 | 0 | 1.6 | 4.8 | 0.00 | 0.00 | 0.00 | 95 | 1012.8 |
| 20260905042108 | 18 | 263 | 0.0 | 6.4 | 0.00 | 0.00 | 0.00 | 95 | 1012.8 |
| 20260905041610 | 18 | 308 | 3.2 | 6.4 | 0.00 | 0.00 | 0.00 | 94 | 1012.8 |
| 20260905041109 | 18 | 0 | 0.0 | 8.0 | 0.00 | 0.00 | 0.00 | 94 | 1012.8 |
| 20260905040607 | 18 | 270 | 3.2 | 8.0 | 0.00 | 0.03 | 0.00 | 94 | 1012.8 |
| 20260905040109 | 18 | 0 | 0.0 | 8.0 | 0.00 | 0.03 | 0.00 | 94 | 1012.8 |
| 20260905035607 | 18 | 311 | 4.8 | 8.0 | 0.00 | 0.03 | 0.00 | 94 | 1013.2 |
| 20260905034608 | 18 | 337 | 0.0 | 9.7 | 0.00 | 0.03 | 0.00 | 94 | 1013.2 |
| 20260905034106 | 18 | 247 | 3.2 | 9.7 | 0.00 | 0.03 | 0.00 | 94 | 1013.2 |
| 20260905033607 | 18 | 257 | 1.6 | 9.7 | 0.00 | 0.03 | 0.00 | 94 | 1012.8 |
| 20260905033105 | 18 | 279 | 3.2 | 9.7 | 0.00 | 0.03 | 0.00 | 94 | 1013.2 |
| 20260905032605 | 18 | 300 | 1.6 | 8.0 | 0.00 | 0.03 | 0.00 | 94 | 1013.2 |
| 20260905031605 | 18 | 259 | 4.8 | 6.4 | 0.00 | 0.18 | 0.00 | 95 | 1013.2 |
| 20260905031105 | 18 | 282 | 3.2 | 6.4 | 0.00 | 0.38 | 0.00 | 96 | 1013.2 |
| 20260905030606 | 18 | 7 | 0.0 | 4.8 | 0.00 | 0.84 | 0.00 | 97 | 1013.2 |
| 20260905025103 | 17 | 279 | 0.0 | 4.8 | 0.00 | 1.22 | 0.00 | 98 | 1012.8 |
| 20260905023602 | 17 | 270 | 0.0 | 0.0 | 0.00 | 1.22 | 0.00 | 99 | 1012.8 |
| 20260905023101 | 17 | 270 | 0.0 | 0.0 | 0.00 | 1.22 | 0.00 | 98 | 1012.8 |
| 20260905022101 | 17 | 270 | 0.0 | 0.0 | 0.00 | 1.22 | 0.00 | 98 | 1012.5 |
| 20260905021601 | 17 | 270 | 0.0 | 0.0 | 0.00 | 1.22 | 0.00 | 98 | 1012.8 |
| 20260905021101 | 17 | 270 | 0.0 | 0.0 | 0.00 | 1.22 | 0.00 | 98 | 1012.8 |
| 20260905020601 | 17 | 270 | 0.0 | 0.0 | 0.00 | 1.22 | 0.00 | 97 | 1012.5 |
| 20260905020100 | 17 | 270 | 0.0 | 1.6 | 0.00 | 1.22 | 0.00 | 97 | 1012.5 |
| 20260905015600 | 17 | 294 | 0.0 | 4.8 | 0.00 | 1.22 | 0.00 | 97 | 1012.8 |
| 20260905014559 | 18 | 261 | 0.0 | 3.2 | 0.00 | 1.22 | 0.00 | 97 | 1012.1 |
| 20260905014058 | 18 | 277 | 0.0 | 3.2 | 0.00 | 1.22 | 0.00 | 97 | 1012.1 |
| 20260905013559 | 18 | 261 | 0.0 | 4.8 | 0.00 | 1.22 | 0.00 | 96 | 1012.1 |
| 20260905013058 | 18 | 278 | 0.0 | 6.4 | 0.00 | 1.22 | 0.00 | 96 | 1012.1 |
| 20260905012557 | 18 | 300 | 0.0 | 6.4 | 0.00 | 1.22 | 0.00 | 96 | 1012.1 |
| 20260905012058 | 18 | 270 | 1.6 | 4.8 | 0.00 | 1.22 | 0.00 | 96 | 1012.1 |
| 20260905011557 | 18 | 0 | 0.0 | 4.8 | 0.00 | 1.22 | 0.00 | 95 | 1012.1 |
| 20260905011057 | 18 | 270 | 3.2 | 4.8 | 0.00 | 1.22 | 0.00 | 95 | 1012.1 |
| 20260905010557 | 18 | 261 | 0.0 | 3.2 | 0.00 | 1.22 | 0.00 | 94 | 1012.1 |
| 20260905010058 | 18 | 262 | 1.6 | 6.4 | 0.00 | 1.22 | 0.00 | 94 | 1012.1 |
| 20260905005056 | 19 | 278 | 1.6 | 6.4 | 0.00 | 1.22 | 0.00 | 93 | 1012.1 |
| 20260905004555 | 19 | 297 | 0.0 | 6.4 | 0.00 | 1.22 | 0.00 | 92 | 1012.5 |
| 20260905004055 | 19 | 0 | 0.0 | 3.2 | 0.00 | 1.22 | 0.00 | 92 | 1012.1 |
| 20260905003054 | 20 | 340 | 0.0 | 6.4 | 0.00 | 1.22 | 0.00 | 91 | 1012.1 |
| 20260905002554 | 20 | 334 | 3.2 | 8.0 | 0.00 | 1.22 | 0.00 | 91 | 1011.8 |
| 20260905002054 | 20 | 292 | 3.2 | 8.0 | 0.00 | 1.22 | 0.00 | 90 | 1011.8 |
| 20260905001553 | 20 | 300 | 0.0 | 6.4 | 0.00 | 1.22 | 0.00 | 90 | 1012.1 |
| 20260905001053 | 20 | 262 | 1.6 | 6.4 | 0.00 | 1.22 | 0.00 | 89 | 1011.8 |
| 20260905000053 | 21 | 301 | 3.2 | 8.0 | 0.00 | 1.22 | 0.00 | 88 | 1011.8 |
| 20260904235552 | 21 | 311 | 4.8 | 8.0 | 0.00 | 1.22 | 0.00 | 87 | 1011.8 |
| 20260904235052 | 21 | 306 | 0.0 | 9.7 | 0.00 | 1.22 | 0.00 | 87 | 1011.8 |
| 20260904234552 | 21 | 331 | 3.2 | 9.7 | 0.00 | 1.22 | 0.00 | 86 | 1011.8 |
| 20260904234051 | 22 | 276 | 0.0 | 6.4 | 0.00 | 1.22 | 0.00 | 84 | 1011.8 |
| 20260904233551 | 22 | 297 | 3.2 | 6.4 | 0.00 | 1.22 | 0.00 | 84 | 1011.8 |
| 20260904233051 | 22 | 341 | 3.2 | 4.8 | 0.00 | 1.22 | 0.00 | 83 | 1011.8 |
| 20260904232552 | 22 | 337 | 0.0 | 4.8 | 0.00 | 1.22 | 0.00 | 84 | 1011.8 |
| 20260904232050 | 23 | 262 | 0.0 | 4.8 | 0.00 | 1.22 | 0.00 | 83 | 1011.8 |
| 20260904231050 | 23 | 254 | 1.6 | 9.7 | 0.00 | 1.22 | 0.00 | 82 | 1011.5 |
| 20260904230049 | 23 | 279 | 0.0 | 4.8 | 0.00 | 1.22 | 0.00 | 80 | 1011.5 |
| 20260904225550 | 23 | 307 | 3.2 | 9.7 | 0.00 | 1.22 | 0.00 | 80 | 1011.5 |
| 20260904225048 | 23 | 332 | 3.2 | 9.7 | 0.00 | 1.22 | 0.00 | 79 | 1011.5 |
| 20260904224550 | 23 | 270 | 1.6 | 8.0 | 0.00 | 1.24 | 0.00 | 79 | 1011.0 |
| 20260904224049 | 24 | 292 | 4.8 | 6.4 | 0.00 | 1.24 | 0.00 | 77 | 1011.5 |
| 20260904223549 | 24 | 282 | 0.0 | 6.4 | 0.00 | 1.24 | 0.00 | 78 | 1011.5 |
| 20260904223047 | 24 | 306 | 1.6 | 6.4 | 0.00 | 1.24 | 0.00 | 78 | 1011.0 |
| 20260904222548 | 25 | 274 | 4.8 | 6.4 | 0.00 | 1.27 | 0.00 | 77 | 1011.0 |
| 20260904222046 | 25 | 254 | 1.6 | 8.0 | 0.00 | 1.32 | 0.00 | 77 | 1011.0 |
| 20260904221046 | 25 | 212 | 0.0 | 6.4 | 0.00 | 1.55 | 0.00 | 77 | 1011.0 |
| 20260904220046 | 25 | 257 | 1.6 | 6.4 | 0.00 | 1.57 | 0.00 | 77 | 1011.0 |
| 20260904215547 | 24 | 312 | 3.2 | 6.4 | 0.00 | 1.65 | 0.00 | 78 | 1011.0 |
| 20260904215045 | 25 | 262 | 0.0 | 6.4 | 0.00 | 1.88 | 0.00 | 76 | 1011.0 |
| 20260904214545 | 25 | 264 | 3.2 | 6.4 | 0.00 | 2.74 | 0.00 | 76 | 1011.0 |
| 20260904214045 | 25 | 251 | 1.6 | 4.8 | 0.00 | 3.20 | 0.00 | 77 | 1011.0 |
| 20260904213546 | 25 | 315 | 3.2 | 8.0 | 0.00 | 3.20 | 0.00 | 77 | 1010.7 |
| 20260904212545 | 25 | 270 | 4.8 | 8.0 | 0.00 | 3.20 | 0.00 | 77 | 1010.7 |
| 20260904212044 | 25 | 355 | 0.0 | 8.0 | 0.00 | 3.20 | 0.00 | 76 | 1011.0 |
| 20260904211544 | 25 | 319 | 3.2 | 9.7 | 0.00 | 3.20 | 0.00 | 77 | 1011.0 |
| 20260904211042 | 25 | 261 | 0.0 | 9.7 | 0.00 | 3.20 | 0.00 | 78 | 1011.0 |
| 20260904210544 | 24 | 292 | 3.2 | 8.0 | 0.00 | 3.20 | 0.00 | 76 | 1011.0 |
| 20260904210042 | 25 | 243 | 1.6 | 6.4 | 0.00 | 3.20 | 0.00 | 75 | 1011.0 |
| 20260904205543 | 26 | 300 | 3.2 | 6.4 | 0.00 | 3.20 | 0.00 | 76 | 1011.0 |
| 20260904205041 | 25 | 243 | 1.6 | 6.4 | 0.00 | 3.20 | 0.00 | 75 | 1011.0 |
| 20260904203542 | 25 | 206 | 0.0 | 6.4 | 0.00 | 3.20 | 0.00 | 74 | 1011.5 |
| 20260904203040 | 25 | 286 | 3.2 | 6.4 | 0.00 | 3.20 | 0.00 | 74 | 1011.0 |
| 20260904202039 | 25 | 315 | 3.2 | 8.0 | 0.00 | 3.20 | 0.00 | 75 | 1011.0 |
| 20260904201541 | 24 | 243 | 3.2 | 8.0 | 0.00 | 3.20 | 0.00 | 76 | 1011.0 |
| 20260904201039 | 25 | 270 | 0.0 | 8.0 | 0.00 | 3.20 | 0.00 | 77 | 1011.0 |
| 20260904200538 | 24 | 289 | 0.0 | 6.4 | 0.00 | 3.20 | 0.00 | 77 | 1011.0 |
| 20260904200038 | 24 | 225 | 3.2 | 8.0 | 0.00 | 3.20 | 0.00 | 78 | 1011.5 |
| 20260904195540 | 24 | 236 | 3.2 | 8.0 | 0.00 | 3.20 | 0.00 | 80 | 1011.5 |
| 20260904195038 | 23 | 276 | 1.6 | 6.4 | 0.00 | 3.20 | 0.00 | 79 | 1011.5 |
| 20260904194537 | 23 | 264 | 1.6 | 8.0 | 0.00 | 3.20 | 0.00 | 79 | 1011.5 |
| 20260904194037 | 24 | 255 | 1.6 | 8.0 | 0.00 | 3.20 | 0.00 | 78 | 1011.5 |
| 20260904193538 | 23 | 0 | 1.6 | 8.0 | 0.00 | 3.20 | 0.00 | 80 | 1011.0 |
| 20260904193036 | 23 | 270 | 1.6 | 8.0 | 0.00 | 3.20 | 0.00 | 79 | 1011.5 |
| 20260904192537 | 23 | 217 | 3.2 | 8.0 | 0.00 | 3.20 | 0.00 | 79 | 1011.5 |
| 20260904191536 | 23 | 294 | 4.8 | 8.0 | 0.00 | 3.20 | 0.00 | 79 | 1011.5 |
| 20260904191036 | 23 | 262 | 0.0 | 4.8 | 0.00 | 3.20 | 0.00 | 80 | 1011.5 |
| 20260904190535 | 23 | 216 | 0.0 | 4.8 | 0.00 | 3.20 | 0.00 | 80 | 1011.5 |
| 20260904190035 | 23 | 356 | 3.2 | 6.4 | 0.00 | 3.20 | 0.00 | 81 | 1011.5 |
| 20260904185534 | 22 | 274 | 0.0 | 6.4 | 0.00 | 3.20 | 0.00 | 83 | 1011.5 |
| 20260904185035 | 22 | 270 | 0.0 | 3.2 | 0.00 | 3.20 | 0.00 | 82 | 1011.5 |
| 20260904183534 | 22 | 325 | 0.0 | 9.7 | 0.00 | 3.20 | 0.00 | 85 | 1011.5 |
| 20260904182530 | 21 | 315 | 3.2 | 6.4 | 0.00 | 3.20 | 0.00 | 85 | 1011.5 |
| 20260904182029 | 21 | 180 | 0.0 | 4.8 | 0.00 | 3.20 | 0.00 | 89 | 1011.5 |
| 20260904181528 | 21 | 352 | 0.0 | 4.8 | 0.00 | 3.20 | 0.00 | 87 | 1011.5 |
| 20260904181029 | 21 | 188 | 0.0 | 6.4 | 0.00 | 3.20 | 0.00 | 89 | 1011.5 |
| 20260904180528 | 21 | 319 | 3.2 | 8.0 | 0.00 | 3.20 | 0.00 | 89 | 1011.5 |
| 20260904180031 | 20 | 262 | 0.0 | 11.3 | 0.00 | 3.20 | 0.00 | 90 | 1011.0 |
| 20260904175529 | 20 | 264 | 3.2 | 11.3 | 0.00 | 3.20 | 0.00 | 87 | 1011.5 |
| 20260904175029 | 20 | 250 | 3.2 | 6.4 | 0.00 | 3.20 | 0.00 | 90 | 1011.5 |
| 20260904174530 | 20 | 261 | 0.0 | 3.2 | 0.00 | 3.20 | 0.00 | 90 | 1011.5 |
| 20260904174028 | 20 | 188 | 0.0 | 4.8 | 0.00 | 3.20 | 0.00 | 91 | 1011.5 |
| 20260904173529 | 20 | 315 | 0.0 | 4.8 | 0.00 | 3.20 | 0.00 | 91 | 1011.5 |
| 20260904173029 | 19 | 254 | 0.0 | 9.7 | 0.00 | 3.20 | 0.00 | 92 | 1011.5 |
| 20260904172531 | 19 | 283 | 0.0 | 9.7 | 0.00 | 3.20 | 0.00 | 93 | 1011.5 |
| 20260904172029 | 19 | 270 | 0.0 | 4.8 | 0.00 | 3.20 | 0.00 | 93 | 1011.5 |
| 20260904171530 | 18 | 289 | 1.6 | 8.0 | 0.00 | 3.20 | 0.00 | 92 | 1011.5 |
| 20260904171028 | 19 | 228 | 3.2 | 9.7 | 0.00 | 3.20 | 0.00 | 93 | 1011.5 |
| 20260904170529 | 18 | 265 | 3.2 | 9.7 | 0.00 | 3.20 | 0.00 | 92 | 1011.0 |
| 20260904170027 | 18 | 334 | 1.6 | 8.0 | 0.00 | 3.20 | 0.00 | 95 | 1011.0 |
| 20260904165529 | 18 | 334 | 0.0 | 8.0 | 0.00 | 3.20 | 0.00 | 96 | 1011.5 |
| 20260904164528 | 17 | 309 | 0.0 | 9.7 | 0.00 | 3.20 | 0.00 | 98 | 1011.5 |
| 20260904164026 | 17 | 326 | 6.4 | 9.7 | 0.00 | 3.20 | 0.00 | 98 | 1011.0 |
| 20260904163527 | 17 | 261 | 0.0 | 8.0 | 0.00 | 3.20 | 0.00 | 99 | 1011.0 |
| 20260904163025 | 17 | 289 | 1.6 | 9.7 | 0.00 | 3.20 | 0.00 | 99 | 1011.0 |
| 20260904162025 | 17 | 254 | 0.0 | 6.4 | 0.00 | 3.20 | 0.00 | 99 | 1011.0 |
| 20260904161527 | 17 | 321 | 0.0 | 6.4 | 0.00 | 3.20 | 0.00 | 99 | 1011.0 |
| 20260904161025 | 17 | 270 | 1.6 | 6.4 | 0.00 | 3.20 | 0.00 | 99 | 1011.0 |
| 20260904160526 | 17 | 254 | 1.6 | 6.4 | 0.00 | 3.20 | 0.00 | 99 | 1011.0 |
| 20260904160024 | 17 | 324 | 0.0 | 6.4 | 0.00 | 3.20 | 0.00 | 99 | 1011.0 |
| 20260904155526 | 17 | 315 | 3.2 | 4.8 | 0.00 | 3.20 | 0.00 | 99 | 1011.0 |
| 20260904155023 | 17 | 195 | 0.0 | 4.8 | 0.00 | 3.20 | 0.00 | 99 | 1011.0 |
| 20260904154525 | 17 | 348 | 0.0 | 4.8 | 0.00 | 3.20 | 0.00 | 99 | 1011.0 |
| 20260904153524 | 17 | 255 | 0.0 | 3.2 | 0.00 | 3.20 | 0.00 | 99 | 1010.7 |
| 20260904153022 | 17 | 261 | 0.0 | 3.2 | 0.00 | 3.20 | 0.00 | 99 | 1011.0 |
| 20260904152021 | 16 | 288 | 3.2 | 3.2 | 0.00 | 3.20 | 0.00 | 99 | 1011.0 |
| 20260904151021 | 17 | 331 | 0.0 | 4.8 | 0.00 | 3.20 | 0.00 | 99 | 1010.3 |
| 20260904150522 | 17 | 0 | 0.0 | 4.8 | 0.00 | 3.20 | 0.00 | 99 | 1010.3 |
| 20260904150020 | 17 | 337 | 0.0 | 3.2 | 0.00 | 3.20 | 0.00 | 99 | 1010.3 |
| 20260904145521 | 16 | 240 | 3.2 | 4.8 | 0.00 | 3.20 | 0.00 | 99 | 1010.3 |
| 20260904145021 | 17 | 255 | 0.0 | 4.8 | 0.00 | 3.20 | 0.00 | 99 | 1010.3 |
| 20260904144520 | 17 | 291 | 0.0 | 3.2 | 0.00 | 3.20 | 0.00 | 99 | 1010.0 |
| 20260904144019 | 17 | 270 | 0.0 | 3.2 | 0.00 | 3.20 | 0.00 | 99 | 1010.3 |
| 20260904143521 | 16 | 188 | 0.0 | 3.2 | 0.00 | 3.20 | 0.00 | 99 | 1010.3 |
| 20260904143019 | 16 | 249 | 0.0 | 3.2 | 0.00 | 3.20 | 0.00 | 99 | 1010.7 |
| 20260904142519 | 16 | 270 | 0.0 | 3.2 | 0.00 | 3.20 | 0.00 | 99 | 1010.3 |
| 20260904142018 | 17 | 7 | 0.0 | 3.2 | 0.00 | 3.20 | 0.00 | 99 | 1010.0 |
| 20260904141519 | 17 | 270 | 1.6 | 3.2 | 0.00 | 3.20 | 0.00 | 99 | 1009.7 |
| 20260904141017 | 17 | 353 | 0.0 | 3.2 | 0.00 | 3.20 | 0.00 | 99 | 1009.7 |
| 20260904140518 | 16 | 290 | 3.2 | 3.2 | 0.00 | 3.20 | 0.00 | 99 | 1009.7 |
| 20260904140017 | 17 | 300 | 0.0 | 3.2 | 0.00 | 3.20 | 0.00 | 99 | 1009.7 |
| 20260904135518 | 17 | 262 | 0.0 | 3.2 | 0.00 | 3.20 | 0.00 | 99 | 1009.7 |
| 20260904135017 | 16 | 297 | 0.0 | 3.2 | 0.00 | 3.20 | 0.00 | 99 | 1009.7 |
| 20260904134518 | 16 | 270 | 0.0 | 4.8 | 0.00 | 3.20 | 0.00 | 99 | 1009.7 |
| 20260904134015 | 16 | 294 | 0.0 | 4.8 | 0.00 | 3.20 | 0.00 | 99 | 1009.7 |
| 20260904133517 | 16 | 279 | 0.0 | 3.2 | 0.00 | 3.20 | 0.00 | 99 | 1009.7 |
| 20260904133015 | 16 | 294 | 0.0 | 3.2 | 0.00 | 3.20 | 0.00 | 99 | 1009.7 |
| 20260904132516 | 16 | 300 | 0.0 | 3.2 | 0.00 | 3.20 | 0.00 | 99 | 1009.3 |
| 20260904132015 | 16 | 337 | 1.6 | 1.6 | 0.00 | 3.20 | 0.00 | 99 | 1009.7 |
| 20260904131515 | 16 | 337 | 0.0 | 3.2 | 0.00 | 3.20 | 0.00 | 99 | 1009.7 |
| 20260904130514 | 16 | 261 | 0.0 | 1.6 | 0.00 | 3.20 | 0.00 | 99 | 1009.3 |
| 20260904130013 | 16 | 331 | 0.0 | 1.6 | 0.00 | 3.20 | 0.00 | 99 | 1009.3 |
| 20260904125515 | 16 | 261 | 0.0 | 3.2 | 0.00 | 3.20 | 0.00 | 99 | 1009.0 |
| 20260904125012 | 16 | 0 | 0.0 | 3.2 | 0.00 | 3.20 | 0.00 | 99 | 1009.3 |
| 20260904124513 | 16 | 270 | 3.2 | 3.2 | 0.00 | 3.20 | 0.00 | 99 | 1009.3 |
| 20260904124012 | 16 | 346 | 0.0 | 3.2 | 0.00 | 3.20 | 0.00 | 99 | 1009.3 |
| 20260904123513 | 16 | 270 | 0.0 | 3.2 | 0.00 | 3.20 | 0.00 | 99 | 1009.3 |
| 20260904123011 | 16 | 270 | 0.0 | 0.0 | 0.00 | 3.20 | 0.00 | 99 | 1009.3 |
| 20260904122513 | 16 | 270 | 0.0 | 3.2 | 0.00 | 3.20 | 0.00 | 99 | 1009.3 |
| 20260904122011 | 16 | 270 | 1.6 | 3.2 | 0.00 | 3.20 | 0.00 | 99 | 1009.3 |
| 20260904121512 | 16 | 352 | 0.0 | 1.6 | 0.00 | 3.20 | 0.00 | 99 | 1009.0 |
| 20260904121010 | 16 | 0 | 0.0 | 3.2 | 0.00 | 3.20 | 0.00 | 99 | 1009.0 |
| 20260904120511 | 16 | 0 | 0.0 | 3.2 | 0.00 | 3.20 | 0.00 | 99 | 1009.0 |
| 20260904120010 | 16 | 352 | 0.0 | 0.0 | 0.00 | 3.20 | 0.00 | 99 | 1009.0 |
| 20260904115510 | 16 | 352 | 0.0 | 0.0 | 0.00 | 3.20 | 0.00 | 99 | 1009.0 |
| 20260904114510 | 16 | 352 | 0.0 | 0.0 | 0.00 | 3.20 | 0.00 | 99 | 1009.0 |
| 20260904114008 | 16 | 352 | 0.0 | 0.0 | 0.00 | 3.20 | 0.00 | 99 | 1008.5 |
| 20260904113509 | 16 | 352 | 0.0 | 0.0 | 0.00 | 3.20 | 0.00 | 99 | 1008.5 |
| 20260904113008 | 16 | 352 | 0.0 | 0.0 | 0.00 | 3.20 | 0.00 | 99 | 1009.0 |
| 20260904112509 | 16 | 352 | 0.0 | 0.0 | 0.00 | 3.20 | 0.00 | 99 | 1008.5 |
| 20260904112007 | 16 | 352 | 0.0 | 0.0 | 0.00 | 3.20 | 0.00 | 99 | 1008.5 |
| 20260904111508 | 16 | 352 | 0.0 | 0.0 | 0.00 | 3.20 | 0.00 | 99 | 1008.2 |
| 20260904111007 | 16 | 352 | 0.0 | 1.6 | 0.00 | 3.20 | 0.00 | 99 | 1008.2 |
| 20260904105007 | 16 | 270 | 0.0 | 3.2 | 0.00 | 3.20 | 0.00 | 99 | 1008.5 |
| 20260904104505 | 16 | 331 | 0.0 | 3.2 | 0.00 | 3.20 | 0.00 | 99 | 1008.2 |
| 20260904104005 | 16 | 297 | 0.0 | 1.6 | 0.00 | 3.20 | 0.00 | 99 | 1008.2 |
| 20260904103506 | 16 | 0 | 0.0 | 0.0 | 0.00 | 3.20 | 0.00 | 99 | 1007.9 |
| 20260904103005 | 16 | 0 | 0.0 | 0.0 | 0.00 | 3.20 | 0.00 | 99 | 1008.2 |
| 20260904102502 | 16 | 0 | 0.0 | 0.0 | 0.00 | 3.20 | 0.00 | 99 | 1008.2 |
| 20260904101502 | 16 | 0 | 0.0 | 0.0 | 0.00 | 3.20 | 0.00 | 99 | 1008.2 |
| 20260904101001 | 16 | 0 | 0.0 | 0.0 | 0.00 | 3.20 | 0.00 | 99 | 1008.2 |
| 20260904100502 | 16 | 0 | 0.0 | 0.0 | 0.00 | 3.20 | 0.00 | 99 | 1008.2 |
| 20260904100001 | 16 | 0 | 0.0 | 0.0 | 0.00 | 3.20 | 0.00 | 99 | 1007.9 |
| 20260904095503 | 16 | 0 | 0.0 | 0.0 | 0.00 | 3.20 | 0.00 | 99 | 1007.9 |
| 20260904095001 | 16 | 0 | 0.0 | 0.0 | 0.00 | 3.20 | 0.00 | 99 | 1008.2 |
| 20260904094503 | 16 | 0 | 0.0 | 0.0 | 0.00 | 3.20 | 0.00 | 99 | 1008.2 |
| 20260904094000 | 16 | 0 | 0.0 | 1.6 | 0.00 | 3.20 | 0.00 | 99 | 1007.9 |
| 20260904092502 | 16 | 352 | 0.0 | 0.0 | 0.00 | 3.20 | 0.00 | 99 | 1007.9 |
| 20260904092000 | 16 | 352 | 0.0 | 0.0 | 0.00 | 3.20 | 0.00 | 99 | 1007.9 |
| 20260904091502 | 16 | 352 | 0.0 | 0.0 | 0.00 | 3.20 | 0.00 | 99 | 1007.5 |
| 20260904091000 | 16 | 352 | 0.0 | 0.0 | 0.00 | 3.20 | 0.00 | 99 | 1007.5 |
| 20260904090459 | 16 | 352 | 0.0 | 3.2 | 0.00 | 3.20 | 0.00 | 99 | 1007.5 |
| 20260904084958 | 16 | 215 | 0.0 | 0.0 | 0.00 | 3.20 | 0.00 | 99 | 1007.5 |
| 20260904084459 | 16 | 215 | 0.0 | 1.6 | 0.00 | 3.20 | 0.00 | 99 | 1007.5 |
| 20260904083457 | 16 | 353 | 0.0 | 1.6 | 0.00 | 3.20 | 0.00 | 99 | 1007.5 |
| 20260904082457 | 16 | 348 | 0.0 | 0.0 | 0.00 | 3.20 | 0.00 | 99 | 1007.2 |
| 20260904081957 | 16 | 348 | 0.0 | 0.0 | 0.00 | 3.20 | 0.00 | 99 | 1006.9 |
| 20260904081456 | 16 | 348 | 0.0 | 0.0 | 0.00 | 3.20 | 0.00 | 99 | 1006.9 |
| 20260904080957 | 16 | 348 | 0.0 | 1.6 | 0.00 | 3.20 | 0.00 | 99 | 1006.9 |
| 20260904080456 | 16 | 348 | 0.0 | 3.2 | 0.00 | 3.20 | 0.00 | 99 | 1006.9 |
| 20260904074955 | 16 | 286 | 0.0 | 0.0 | 0.00 | 3.20 | 0.00 | 99 | 1006.9 |
| 20260904074456 | 16 | 286 | 0.0 | 3.2 | 0.00 | 3.20 | 0.00 | 99 | 1006.9 |
| 20260904073955 | 16 | 286 | 0.0 | 3.2 | 0.00 | 3.20 | 0.00 | 99 | 1006.9 |
| 20260904073454 | 16 | 337 | 0.0 | 3.2 | 0.00 | 3.20 | 0.00 | 99 | 1006.9 |
| 20260904072953 | 16 | 254 | 0.0 | 3.2 | 0.00 | 3.20 | 0.00 | 99 | 1006.9 |
| 20260904071953 | 16 | 246 | 0.0 | 3.2 | 0.00 | 3.20 | 0.00 | 99 | 1006.9 |
| 20260904071454 | 16 | 286 | 0.0 | 3.2 | 0.00 | 3.20 | 0.00 | 99 | 1006.9 |
| 20260904070952 | 16 | 254 | 0.0 | 3.2 | 0.00 | 3.20 | 0.00 | 99 | 1006.9 |
| 20260904070454 | 16 | 254 | 0.0 | 3.2 | 0.00 | 3.20 | 0.00 | 99 | 1006.9 |
| 20260904065952 | 16 | 353 | 0.0 | 4.8 | 0.00 | 3.20 | 0.00 | 99 | 1007.2 |
| 20260904065453 | 16 | 300 | 3.2 | 4.8 | 0.00 | 3.20 | 0.00 | 99 | 1006.9 |
| 20260904064951 | 16 | 327 | 0.0 | 3.2 | 0.00 | 3.20 | 0.00 | 99 | 1006.9 |
| 20260904064452 | 16 | 294 | 0.0 | 3.2 | 0.00 | 3.20 | 0.00 | 99 | 1006.9 |
| 20260904062450 | 16 | 345 | 0.0 | 6.4 | 0.00 | 3.20 | 0.00 | 99 | 1006.9 |
| 20260904061950 | 16 | 279 | 0.0 | 6.4 | 0.00 | 3.20 | 0.00 | 99 | 1006.9 |
| 20260904061451 | 16 | 355 | 0.0 | 4.8 | 0.00 | 3.20 | 0.00 | 99 | 1007.2 |
| 20260904060949 | 16 | 348 | 4.8 | 6.4 | 0.00 | 3.20 | 0.00 | 99 | 1006.9 |
| 20260904055948 | 16 | 8 | 0.0 | 4.8 | 0.00 | 3.20 | 0.00 | 99 | 1007.2 |